Time,TemperatureF,DewpointF,PressureIn,WindDirection,WindDirectionDegrees,WindSpeedMPH,WindSpeedGustMPH,Humidity,HourlyPrecipIn,Conditions,Clouds,dailyrainin,SolarRadiationWatts/m^2,SoftwareType,DateUTC
2013-04-02 00:02:00,64.0,42.0,-100.00,WNW,299,7.0,13.0,44,0.00,,,0.00,1.000000,,2013-04-02 07:02:00,
2013-04-02 00:11:00,64.0,42.0,-100.00,WNW,299,7.0,13.0,44,0.00,,,0.00,1.000000,,2013-04-02 07:11:00,
2013-04-02 00:43:00,61.0,42.0,-100.00,WSW,258,4.0,11.0,50,0.00,,,0.00,1.000000,,2013-04-02 07:43:00,
2013-04-02 00:52:00,61.0,42.0,-100.00,WSW,258,4.0,11.0,50,0.00,,,0.00,1.000000,,2013-04-02 07:52:00,
2013-04-02 01:02:00,61.0,42.0,-100.00,WSW,258,4.0,11.0,50,0.00,,,0.00,1.000000,,2013-04-02 08:02:00,
2013-04-02 01:12:00,61.0,42.0,-100.00,WSW,258,4.0,11.0,50,0.00,,,0.00,1.000000,,2013-04-02 08:12:00,
2013-04-02 01:42:00,62.0,43.0,-100.00,NW,304,8.0,12.0,49,0.00,,,0.00,1.000000,,2013-04-02 08:42:00,
2013-04-02 01:52:00,62.0,43.0,-100.00,NW,304,8.0,12.0,49,0.00,,,0.00,1.000000,,2013-04-02 08:52:00,
2013-04-02 02:02:00,62.0,43.0,-100.00,NW,304,8.0,12.0,49,0.00,,,0.00,1.000000,,2013-04-02 09:02:00,
2013-04-02 02:12:00,62.0,43.0,-100.00,NW,304,8.0,12.0,49,0.00,,,0.00,1.000000,,2013-04-02 09:12:00,
2013-04-02 02:43:00,61.0,43.0,-100.00,NW,305,9.0,16.0,52,0.00,,,0.00,1.000000,,2013-04-02 09:43:00,
2013-04-02 02:52:00,61.0,43.0,-100.00,NW,305,9.0,16.0,52,0.00,,,0.00,1.000000,,2013-04-02 09:52:00,
2013-04-02 03:03:00,61.0,43.0,-100.00,NW,305,9.0,16.0,52,0.00,,,0.00,1.000000,,2013-04-02 10:03:00,
2013-04-02 03:12:00,61.0,43.0,-100.00,NW,305,9.0,16.0,52,0.00,,,0.00,1.000000,,2013-04-02 10:12:00,
2013-04-02 03:42:00,60.0,42.0,-100.00,WNW,302,8.0,17.0,52,0.00,,,0.00,1.000000,,2013-04-02 10:42:00,
2013-04-02 03:52:00,60.0,42.0,-100.00,WNW,302,8.0,17.0,52,0.00,,,0.00,1.000000,,2013-04-02 10:52:00,
2013-04-02 04:02:00,60.0,42.0,-100.00,WNW,302,8.0,17.0,52,0.00,,,0.00,1.000000,,2013-04-02 11:02:00,
2013-04-02 04:12:00,60.0,42.0,-100.00,WNW,302,8.0,17.0,52,0.00,,,0.00,1.000000,,2013-04-02 11:12:00,
2013-04-02 04:43:00,58.0,42.0,-100.00,WNW,283,5.0,12.0,56,0.00,,,0.00,1.000000,,2013-04-02 11:43:00,
2013-04-02 04:52:00,58.0,42.0,-100.00,WNW,283,5.0,12.0,56,0.00,,,0.00,1.000000,,2013-04-02 11:52:00,
2013-04-02 05:02:00,58.0,42.0,-100.00,WNW,283,5.0,12.0,56,0.00,,,0.00,1.000000,,2013-04-02 12:02:00,
2013-04-02 05:11:00,58.0,42.0,-100.00,WNW,283,5.0,12.0,56,0.00,,,0.00,1.000000,,2013-04-02 12:11:00,
2013-04-02 05:42:00,56.0,43.0,-100.00,West,268,5.0,8.0,61,0.00,,,0.00,1.000000,,2013-04-02 12:42:00,
2013-04-02 05:52:00,56.0,43.0,-100.00,West,268,5.0,8.0,61,0.00,,,0.00,1.000000,,2013-04-02 12:52:00,
2013-04-02 06:01:00,56.0,43.0,-100.00,West,268,5.0,8.0,61,0.00,,,0.00,1.000000,,2013-04-02 13:01:00,
2013-04-02 06:12:00,56.0,43.0,-100.00,West,268,5.0,8.0,61,0.00,,,0.00,1.000000,,2013-04-02 13:12:00,
2013-04-02 06:42:00,58.0,45.0,-100.00,WNW,289,7.0,10.0,61,0.00,,,-99.99,1.000000,,2013-04-02 13:42:00,
2013-04-02 06:52:00,58.0,45.0,-100.00,WNW,289,7.0,10.0,61,0.00,,,-99.99,1.000000,,2013-04-02 13:52:00,
2013-04-02 07:02:00,58.0,45.0,-100.00,WNW,289,7.0,10.0,61,0.00,,,-99.99,1.000000,,2013-04-02 14:02:00,
2013-04-02 07:12:00,58.0,45.0,-100.00,WNW,289,7.0,10.0,61,0.00,,,-99.99,1.000000,,2013-04-02 14:12:00,
2013-04-02 07:42:00,58.0,46.0,-100.00,NW,305,6.0,11.0,64,0.00,,,0.00,45.000000,,2013-04-02 14:42:00,
2013-04-02 07:52:00,58.0,46.0,-100.00,NW,305,6.0,11.0,64,0.00,,,0.00,45.000000,,2013-04-02 14:52:00,
2013-04-02 08:02:00,58.0,46.0,-100.00,NW,305,6.0,11.0,64,0.00,,,0.00,45.000000,,2013-04-02 15:02:00,
2013-04-02 08:11:00,58.0,46.0,-100.00,NW,305,6.0,11.0,64,0.00,,,0.00,45.000000,,2013-04-02 15:11:00,
2013-04-02 08:43:00,65.0,49.0,-100.00,NW,309,8.0,12.0,56,0.00,,,0.00,244.000000,,2013-04-02 15:43:00,
2013-04-02 08:57:00,65.0,49.0,-100.00,NW,309,8.0,12.0,56,0.00,,,0.00,244.000000,,2013-04-02 15:57:00,
2013-04-02 09:03:00,65.0,49.0,-100.00,NW,309,8.0,12.0,56,0.00,,,0.00,244.000000,,2013-04-02 16:03:00,
2013-04-02 09:13:00,65.0,49.0,-100.00,NW,309,8.0,12.0,56,0.00,,,0.00,244.000000,,2013-04-02 16:13:00,
2013-04-02 09:44:00,67.0,47.0,-100.00,WNW,294,12.0,16.0,49,0.00,,,-99.99,475.000000,,2013-04-02 16:44:00,
2013-04-02 09:53:00,67.0,47.0,-100.00,WNW,294,12.0,16.0,49,0.00,,,-99.99,475.000000,,2013-04-02 16:53:00,
2013-04-02 10:04:00,67.0,47.0,-100.00,WNW,294,12.0,16.0,49,0.00,,,-99.99,475.000000,,2013-04-02 17:04:00,
2013-04-02 10:12:00,67.0,47.0,-100.00,WNW,294,12.0,16.0,49,0.00,,,-99.99,475.000000,,2013-04-02 17:12:00,
2013-04-02 10:43:00,71.0,46.0,-100.00,WNW,288,10.0,15.0,41,0.00,,,0.00,677.000000,,2013-04-02 17:43:00,
2013-04-02 10:55:00,71.0,46.0,-100.00,WNW,288,10.0,15.0,41,0.00,,,0.00,677.000000,,2013-04-02 17:55:00,
2013-04-02 11:03:00,71.0,46.0,-100.00,WNW,288,10.0,15.0,41,0.00,,,0.00,677.000000,,2013-04-02 18:03:00,
2013-04-02 11:12:00,71.0,46.0,-100.00,WNW,288,10.0,15.0,41,0.00,,,0.00,677.000000,,2013-04-02 18:12:00,
2013-04-02 11:43:00,76.0,45.0,-100.00,WNW,283,10.0,14.0,33,0.00,,,0.00,857.000000,,2013-04-02 18:43:00,
2013-04-02 11:55:00,76.0,45.0,-100.00,WNW,283,10.0,14.0,33,0.00,,,0.00,857.000000,,2013-04-02 18:55:00,
2013-04-02 12:02:00,76.0,45.0,-100.00,WNW,283,10.0,14.0,33,0.00,,,0.00,857.000000,,2013-04-02 19:02:00,
2013-04-02 12:12:00,76.0,45.0,-100.00,WNW,283,10.0,14.0,33,0.00,,,0.00,857.000000,,2013-04-02 19:12:00,
2013-04-02 12:55:00,79.0,42.0,-100.00,West,280,9.0,16.0,27,0.00,,,0.00,962.000000,,2013-04-02 19:55:00,
2013-04-02 13:03:00,79.0,42.0,-100.00,West,280,9.0,16.0,27,0.00,,,0.00,962.000000,,2013-04-02 20:03:00,
2013-04-02 13:12:00,79.0,42.0,-100.00,West,280,9.0,16.0,27,0.00,,,0.00,962.000000,,2013-04-02 20:12:00,
2013-04-02 13:44:00,82.0,41.0,-100.00,West,278,9.0,16.0,23,0.00,,,0.00,993.000000,,2013-04-02 20:44:00,
2013-04-02 13:54:00,82.0,41.0,-100.00,West,278,9.0,16.0,23,0.00,,,0.00,993.000000,,2013-04-02 20:54:00,
2013-04-02 14:03:00,82.0,41.0,-100.00,West,278,9.0,16.0,23,0.00,,,0.00,993.000000,,2013-04-02 21:03:00,
2013-04-02 14:12:00,82.0,41.0,-100.00,West,278,9.0,16.0,23,0.00,,,0.00,993.000000,,2013-04-02 21:12:00,
2013-04-02 14:44:00,84.0,37.0,-100.00,NW,311,9.0,17.0,19,0.00,,,0.00,954.000000,,2013-04-02 21:44:00,
2013-04-02 14:55:00,84.0,37.0,-100.00,NW,311,9.0,17.0,19,0.00,,,0.00,954.000000,,2013-04-02 21:55:00,
2013-04-02 15:03:00,84.0,37.0,-100.00,NW,311,9.0,17.0,19,0.00,,,0.00,954.000000,,2013-04-02 22:03:00,
2013-04-02 15:13:00,84.0,37.0,-100.00,NW,311,9.0,17.0,19,0.00,,,0.00,954.000000,,2013-04-02 22:13:00,
2013-04-02 15:44:00,85.0,39.0,-100.00,WSW,245,10.0,16.0,20,0.00,,,0.00,844.000000,,2013-04-02 22:44:00,
2013-04-02 15:53:00,85.0,39.0,-100.00,WSW,245,10.0,16.0,20,0.00,,,0.00,844.000000,,2013-04-02 22:53:00,
2013-04-02 16:02:00,85.0,39.0,-100.00,WSW,245,10.0,16.0,20,0.00,,,0.00,844.000000,,2013-04-02 23:02:00,
2013-04-02 16:12:00,85.0,39.0,-100.00,WSW,245,10.0,16.0,20,0.00,,,0.00,844.000000,,2013-04-02 23:12:00,
2013-04-02 16:43:00,85.0,38.0,-100.00,WSW,246,9.0,18.0,19,0.00,,,0.00,671.000000,,2013-04-02 23:43:00,
2013-04-02 16:54:00,85.0,38.0,-100.00,WSW,246,9.0,18.0,19,0.00,,,0.00,671.000000,,2013-04-02 23:54:00,
2013-04-02 17:02:00,85.0,38.0,-100.00,WSW,246,9.0,18.0,19,0.00,,,0.00,671.000000,,2013-04-03 00:02:00,
2013-04-02 17:12:00,85.0,38.0,-100.00,WSW,246,9.0,18.0,19,0.00,,,0.00,671.000000,,2013-04-03 00:12:00,
2013-04-02 17:47:00,83.0,45.0,-100.00,WSW,248,11.0,16.0,26,0.00,,,0.00,441.000000,,2013-04-03 00:47:00,
2013-04-02 17:55:00,83.0,45.0,-100.00,WSW,248,11.0,16.0,26,0.00,,,0.00,441.000000,,2013-04-03 00:55:00,
2013-04-02 18:42:00,81.0,42.0,-100.00,SW,231,8.0,14.0,25,0.00,,,0.00,215.000000,,2013-04-03 01:42:00,
2013-04-02 18:53:00,81.0,42.0,-100.00,SW,231,8.0,14.0,25,0.00,,,0.00,215.000000,,2013-04-03 01:53:00,
2013-04-02 19:03:00,81.0,42.0,-100.00,SW,231,8.0,14.0,25,0.00,,,0.00,215.000000,,2013-04-03 02:03:00,
2013-04-02 19:12:00,81.0,42.0,-100.00,SW,231,8.0,14.0,25,0.00,,,0.00,215.000000,,2013-04-03 02:12:00,
2013-04-02 19:34:00,77.0,43.0,-100.00,SW,220,6.0,13.0,30,0.00,,,0.00,54.000000,,2013-04-03 02:34:00,
2013-04-02 19:44:00,77.0,43.0,-100.00,SW,220,6.0,13.0,30,0.00,,,0.00,54.000000,,2013-04-03 02:44:00,
2013-04-02 19:53:00,77.0,43.0,-100.00,SW,220,6.0,13.0,30,0.00,,,0.00,54.000000,,2013-04-03 02:53:00,
2013-04-02 20:03:00,77.0,43.0,-100.00,SW,220,6.0,13.0,30,0.00,,,0.00,54.000000,,2013-04-03 03:03:00,
2013-04-02 20:13:00,77.0,43.0,-100.00,SW,220,6.0,13.0,30,0.00,,,0.00,54.000000,,2013-04-03 03:13:00,
2013-04-02 20:44:00,71.0,45.0,-100.00,WSW,247,3.0,7.0,40,0.00,,,0.00,1.000000,,2013-04-03 03:44:00,
2013-04-02 20:54:00,71.0,45.0,-100.00,WSW,247,3.0,7.0,40,0.00,,,0.00,1.000000,,2013-04-03 03:54:00,
2013-04-02 21:03:00,71.0,45.0,-100.00,WSW,247,3.0,7.0,40,0.00,,,0.00,1.000000,,2013-04-03 04:03:00,
2013-04-02 21:12:00,71.0,45.0,-100.00,WSW,247,3.0,7.0,40,0.00,,,0.00,1.000000,,2013-04-03 04:12:00,
2013-04-02 21:43:00,69.0,44.0,-100.00,WSW,241,3.0,6.0,40,0.00,,,0.00,1.000000,,2013-04-03 04:43:00,
2013-04-02 21:53:00,69.0,44.0,-100.00,WSW,241,3.0,6.0,40,0.00,,,0.00,1.000000,,2013-04-03 04:53:00,
2013-04-02 22:02:00,69.0,44.0,-100.00,WSW,241,3.0,6.0,40,0.00,,,0.00,1.000000,,2013-04-03 05:02:00,
2013-04-02 22:12:00,69.0,44.0,-100.00,WSW,241,3.0,6.0,40,0.00,,,0.00,1.000000,,2013-04-03 05:12:00,
2013-04-02 22:42:00,68.0,41.0,-100.00,SSW,198,3.0,4.0,37,0.00,,,0.00,1.000000,,2013-04-03 05:42:00,
2013-04-02 22:52:00,68.0,41.0,-100.00,SSW,198,3.0,4.0,37,0.00,,,0.00,1.000000,,2013-04-03 05:52:00,
2013-04-02 23:02:00,68.0,41.0,-100.00,SSW,198,3.0,4.0,37,0.00,,,0.00,1.000000,,2013-04-03 06:02:00,
2013-04-02 23:12:00,68.0,41.0,-100.00,SSW,198,3.0,4.0,37,0.00,,,0.00,1.000000,,2013-04-03 06:12:00,
2013-04-02 23:42:00,67.0,40.0,-100.00,SSW,212,3.0,5.0,37,0.00,,,0.00,1.000000,,2013-04-03 06:42:00,
2013-04-02 23:52:00,67.0,40.0,-100.00,SSW,212,3.0,5.0,37,0.00,,,0.00,1.000000,,2013-04-03 06:52:00,